Date String (YYYY-MM-DD hh:mm:ss) UTC,Instrument flags,Ambient pressure (hPa),Sample flow (lpm),Bypass flow (lpm),Sample temperature (°C),Ambient temperature (°C),ASC tube jacket temperature (°C),LED temperature (°C),Box temperature (°C),Sample RH (%),Span deviation,Mass concentration (μg/m³),Mass concentration (μg/m³),Mass concentration (μg/m³)
DateTimeUTC,F1_M11,P_M11,Q1_M11,Q2_M11,T1_M11,T2_M11,T3_M11,T4_M11,T5_M11,U1_M11,ZSPAN_M11,X2_M11,X0_M11,X1_M11
2022-03-12 17:00:00,,0826.5,5.01,0.00,23.3,22.5,00.0,32.1,25.1,11.7,0000.0,0001.17,0002.34,0000.71
2022-03-12 17:01:00,,0826.5,4.99,0.00,23.3,22.6,00.0,32.1,25.1,11.6,0000.0,0001.29,0002.50,0000.82
2022-03-12 17:02:00,,0826.5,5.01,0.00,23.3,22.6,00.0,32.1,25.1,11.2,0000.0,0001.37,0002.61,0000.88
2022-03-12 17:03:00,,0826.4,4.99,0.00,23.3,22.6,00.0,32.1,25.1,11.0,0000.0,0001.45,0002.74,0000.94
2022-03-12 17:04:00,,0826.2,5.02,0.00,23.3,22.6,00.0,32.1,25.2,10.7,0000.0,0001.47,0002.75,0000.97
2022-03-12 17:05:00,,0826.5,4.99,0.00,23.3,22.6,00.0,32.2,25.1,11.0,0000.0,0001.50,0002.50,0001.00
2022-03-12 17:06:00,,0826.5,5.00,0.00,23.4,22.6,00.0,32.2,25.1,10.7,0000.0,0001.54,0002.49,0001.06
2022-03-12 17:07:00,,0826.5,5.00,0.00,23.4,22.6,00.0,32.2,25.1,11.3,0000.0,0001.58,0003.54,0001.11
2022-03-12 17:08:00,,0826.4,5.01,0.00,23.4,22.6,00.0,32.2,25.1,11.0,0000.0,0001.65,0004.20,0001.14
2022-03-12 17:09:00,,0826.4,5.00,0.00,23.4,22.6,00.0,32.2,25.1,10.4,0000.0,0001.64,0004.20,0001.14
2022-03-12 17:10:00,,0826.3,5.00,0.00,23.4,22.6,00.0,32.2,25.1,10.2,0000.0,0001.57,0004.08,0001.13
2022-03-12 17:11:00,,0826.2,4.99,0.00,23.4,22.6,00.0,32.2,25.2,11.2,0000.0,0001.58,0004.18,0001.13
2022-03-12 17:12:00,,0826.2,5.00,0.00,23.4,22.6,00.0,32.3,25.2,10.7,0000.0,0001.51,0004.14,0001.02
2022-03-12 17:13:00,,0826.1,5.00,0.00,23.4,22.6,00.0,32.3,25.1,11.1,0000.0,0001.41,0004.02,0000.94
2022-03-12 17:14:00,,0826.1,5.00,0.00,23.4,22.6,00.0,32.3,25.0,10.9,0000.0,0001.34,0003.90,0000.89
2022-03-12 17:15:00,,0826.1,5.02,0.00,23.4,22.6,00.0,32.3,25.0,10.5,0000.0,0001.31,0003.87,0000.86
2022-03-12 17:16:00,,0826.1,4.99,0.00,23.4,22.5,00.0,32.3,25.0,10.3,0000.0,0001.29,0003.86,0000.83
2022-03-12 17:17:00,,0826.1,5.00,0.00,23.4,22.5,00.0,32.3,25.0,11.1,0000.0,0001.24,0003.80,0000.77
2022-03-12 17:18:00,,0826.1,4.99,0.00,23.4,22.5,00.0,32.3,25.1,11.1,0000.0,0001.21,0003.03,0000.72
2022-03-12 17:19:00,,0826.1,5.01,0.00,23.3,22.5,00.0,32.3,25.0,10.6,0000.0,0001.12,0002.09,0000.69
2022-03-12 17:20:00,,0826.1,4.99,0.00,23.3,22.5,00.0,32.3,25.0,10.4,0000.0,0001.07,0001.95,0000.68
2022-03-12 17:21:00,,0826.1,5.01,0.00,23.3,22.5,00.0,32.3,24.9,10.5,0000.0,0001.06,0001.92,0000.68
2022-03-12 17:22:00,,0826.1,5.00,0.00,23.3,22.5,00.0,32.3,25.0,11.7,0000.0,0001.03,0001.92,0000.67
2022-03-12 17:23:00,,0826.1,4.99,0.00,23.3,22.4,00.0,32.3,25.0,11.1,0000.0,0000.96,0001.76,0000.67
2022-03-12 17:24:00,,0826.1,5.00,0.00,23.3,22.4,00.0,32.3,25.0,11.0,0000.0,0000.94,0001.72,0000.66
2022-03-12 17:25:00,,0826.0,5.01,0.00,23.3,22.4,00.0,32.3,25.0,11.4,0000.0,0000.94,0001.70,0000.64
2022-03-12 17:26:00,,0826.0,4.99,0.00,23.3,22.4,00.0,32.3,25.0,10.4,0000.0,0000.97,0002.47,0000.64
2022-03-12 17:27:00,,0826.1,4.99,0.00,23.3,22.4,00.0,32.3,24.9,10.6,0000.0,0000.96,0003.67,0000.65
2022-03-12 17:28:00,,0826.0,5.01,0.00,23.3,22.4,00.0,32.3,24.9,11.5,0000.0,0000.96,0004.43,0000.65
2022-03-12 17:29:00,,0826.0,5.00,0.00,23.3,22.4,00.0,32.3,24.9,11.6,0000.0,0000.94,0004.39,0000.65
2022-03-12 17:30:00,,0826.0,5.01,0.00,23.3,22.4,00.0,32.3,24.9,10.9,0000.0,0000.98,0004.57,0000.65
2022-03-12 17:31:00,,0826.1,4.99,0.00,23.3,22.4,00.0,32.3,24.9,11.1,0000.0,0001.02,0004.80,0000.65
2022-03-12 17:32:00,,0826.0,5.00,0.00,23.3,22.4,00.0,32.3,25.0,10.5,0000.0,0001.04,0004.83,0000.65
2022-03-12 17:33:00,,0826.0,5.00,0.00,23.3,22.4,00.0,32.3,25.0,11.1,0000.0,0001.04,0004.70,0000.64
2022-03-12 17:34:00,,0826.0,4.99,0.00,23.3,22.4,00.0,32.3,25.0,10.6,0000.0,0001.02,0004.63,0000.65
2022-03-12 17:35:00,,0826.0,5.01,0.00,23.3,22.4,00.0,32.3,24.9,11.0,0000.0,0001.03,0004.67,0000.65
2022-03-12 17:36:00,,0826.0,4.99,0.00,23.3,22.4,00.0,32.3,25.0,10.5,0000.0,0001.06,0004.75,0000.66
2022-03-12 17:37:00,,0826.1,5.00,0.00,23.3,22.4,00.0,32.3,24.9,10.4,0000.0,0001.04,0004.23,0000.67
2022-03-12 17:38:00,,0826.0,5.00,0.00,23.3,22.4,00.0,32.3,25.0,11.3,0000.0,0001.02,0003.02,0000.65
2022-03-12 17:39:00,,0826.0,5.00,0.00,23.3,22.4,00.0,32.3,25.0,10.8,0000.0,0001.01,0002.02,0000.64
2022-03-12 17:40:00,,0826.0,5.01,0.00,23.3,22.4,00.0,32.3,24.9,10.4,0000.0,0000.98,0001.94,0000.63
2022-03-12 17:41:00,,0826.1,5.00,0.00,23.3,22.4,00.0,32.3,25.0,11.1,0000.0,0000.97,0001.90,0000.63
2022-03-12 17:42:00,,0826.1,5.01,0.00,23.3,22.4,00.0,32.3,24.9,11.0,0000.0,0000.95,0002.05,0000.63
2022-03-12 17:43:00,,0826.0,4.99,0.00,23.3,22.4,00.0,32.3,25.0,10.8,0000.0,0000.93,0001.98,0000.62
2022-03-12 17:44:00,,0826.1,5.01,0.00,23.3,22.4,00.0,32.3,24.9,10.5,0000.0,0000.92,0002.05,0000.62
2022-03-12 17:45:00,,0826.1,5.00,0.00,23.3,22.3,00.0,32.3,24.9,11.5,0000.0,0000.94,0002.09,0000.62
2022-03-12 17:46:00,,0826.0,5.00,0.00,23.3,22.3,00.0,32.2,24.9,10.6,0000.0,0000.96,0002.16,0000.63
2022-03-12 17:47:00,,0826.0,4.99,0.00,23.2,22.3,00.0,32.2,24.9,11.2,0000.0,0000.94,0002.11,0000.63
2022-03-12 17:48:00,,0826.0,5.01,0.00,23.3,22.3,00.0,32.2,24.9,11.1,0000.0,0000.90,0002.04,0000.62
2022-03-12 17:49:00,,0826.0,4.99,0.00,23.2,22.3,00.0,32.2,24.9,11.0,0000.0,0000.90,0002.05,0000.62
2022-03-12 17:50:00,,0826.0,5.00,0.00,23.2,22.3,00.0,32.2,24.8,11.0,0000.0,0000.94,0002.11,0000.62
2022-03-12 17:51:00,,0826.0,4.99,0.00,23.2,22.3,00.0,32.2,24.8,10.3,0000.0,0000.98,0002.19,0000.63
2022-03-12 17:52:00,,0826.0,5.00,0.00,23.2,22.3,00.0,32.2,24.8,10.8,0000.0,0000.98,0002.13,0000.64
2022-03-12 17:53:00,,0826.0,5.01,0.00,23.2,22.3,00.0,32.2,24.8,10.8,0000.0,0000.99,0001.78,0000.64
2022-03-12 17:54:00,,0826.0,5.00,0.00,23.2,22.3,00.0,32.2,24.9,10.5,0000.0,0000.99,0001.79,0000.65
2022-03-12 17:55:00,,0826.0,4.99,0.00,23.2,22.3,00.0,32.2,24.9,11.1,0000.0,0000.99,0001.69,0000.66
2022-03-12 17:56:00,,0826.0,5.01,0.00,23.2,22.3,00.0,32.2,24.9,10.5,0000.0,0001.03,0001.83,0000.66
2022-03-12 17:57:00,,0825.9,4.99,0.00,23.2,22.3,00.0,32.2,24.9,10.6,0000.0,0001.00,0001.78,0000.65
2022-03-12 17:58:00,,0826.0,5.01,0.00,23.2,22.3,00.0,32.2,25.0,10.6,0000.0,0000.98,0001.72,0000.65
2022-03-12 17:59:00,,0826.0,4.99,0.00,23.2,22.3,00.0,32.2,24.9,10.4,0000.0,0000.99,0001.77,0000.65
